Location: *
(58.7167°N, 26.1833°E)
Time: 05:27:41
(UTC+00:00)

Cosmos 1766 - Pass Details

Date: 25 August 2019
Orbit: 521 x 546 km, 82.5° (Epoch: 16 September)

Event Time Altitude Azimuth Distance (km) Brightness Sun altitude
Exits shadow 22:46:45 39° 253° (WSW) 837 4.0 -20.4°
Maximum altitude 22:47:38 46° 290° (WNW) 747 4.0 -20.4°
Drops below altitude 10° 22:51:32 10° 5° (N) 1,829 7.2 -20.3°
Sets 22:53:46 0° 11° (NNE) 2,724 8.5 -20.3°
